Location: Baia de Cri?
(46.1667°N, 22.7167°E)
Time: 09:53:50
(UTC+00:00)

SL-23 DEB - Pass Details

Date: 15 January 2026
Orbit: 423 x 3435 km, 51.4° (Epoch: 10 February)

Event Time Altitude Azimuth Distance (km) Brightness Sun altitude
Exits shadow 04:40:47 28° 261° (W) 833 4.2 -14.7°
Maximum altitude 04:42:16 67° 336° (NNW) 464 3.2 -14.4°
Drops below altitude 10° 04:45:33 10° 61° (ENE) 1,601 6.8 -13.9°
Sets 04:47:52 0° 64° (ENE) 2,636 8.1 -13.5°
